Regional Weather Roundup
Issued by NWS

Home | Current Version | Previous Version | Graphics & Text | Print | Product List | Glossary On
Versions: 1 2 3 4 5 6 7 8 9 10 11 12 13 14 15 16 17 18 19 20 21 22 23 24 25 26 27 28 29 30 31 32 33 34 35 36 37 38 39 40 41 42 43 44 45 46 47 48 49 50
000
ASUS45 KCYS 101110
RWRWY

WYOMING REGIONAL WEATHER ROUNDUP
NATIONAL WEATHER SERVICE CHEYENNE WY
400 AM MST SAT DEC 10 2016

NOTE:  "FAIR" INDICATES FEW OR NO CLOUDS BELOW 12,000 FEET
WITH NO SIGNIFICANT WEATHER AND/OR OBSTRUCTIONS TO VISIBILITY.

WYZ001-101200-
YELLOWSTONE NATIONAL PARK

CITY           SKY/WX    TMP DP  RH WIND       PRES   REMARKS
LK YELLOWSTONE   N/A     27  25  92 VRB7      29.81F WCI  19
W YELLOWSTONE  NOT AVBL

$$
WYZ002>013-054>058-071-098>099-101200-
NORTHERN WYOMING

CITY           SKY/WX    TMP DP  RH WIND       PRES   REMARKS
JACKSON        CLOUDY    32  32 100 SW6       29.85F WCI  26
CODY           FLURRIES  11   5  77 S5        29.83F WCI   3
GREYBULL       CLOUDY     9   2  73 S3        29.91F
WORLAND        FAIR       5   1  83 S3        29.89F
SHERIDAN       CLOUDY    10   4  76 NW5       29.90F WCI   2
BUFFALO        FAIR       9   1  70 N6        29.83F WCI  -1
GILLETTE       FAIR       1  -3  83 SE9       29.91F WCI -14
HULETT         FAIR       1  -2  85 CALM      29.94F
NEWCASTLE      FLURRIES   0  -6  78 S7        29.98F WCI -13

$$
WYZ014>020-022>026-101>103-101200-
CENTRAL WYOMING

CITY           SKY/WX    TMP DP  RH WIND       PRES   REMARKS
BIG PINEY      CLOUDY    17  16  95 NW3       29.93F
PINEDALE       CLOUDY    27  27 100 SE6       29.93F WCI  20
DUBOIS         CLOUDY    34  25  69 W22G30    29.77F WCI  22
LANDER         FAIR      13   7  77 CALM      29.82F
RIVERTON       FAIR      10   5  80 NW8       29.84F WCI  -2
CASPER         FAIR      36  26  67 SW23      29.83F WCI  24
DOUGLAS        FAIR       6   2  83 CALM      29.88F

$$
WYZ021-027>030-104>119-101200-
SOUTHERN WYOMING

CITY           SKY/WX    TMP DP  RH WIND       PRES   REMARKS
EVANSTON       CLOUDY    37  27  67 SW17      29.98F WCI  27
KEMMERER         N/A     32  28  86 W12       29.96F WCI  23
FORT BRIDGER   PTSUNNY   37  26  66 W14       29.98F WCI  28
ROCK SPRINGS   MOCLDY    32  22  66 SW8       29.96F WCI  25
DIXON          CLOUDY    33  24  69 SW10      30.07S WCI  25
RAWLINS        FAIR      35  20  54 SW13      29.94F WCI  26
SARATOGA       CLOUDY    34  23  64 S7        30.00S WCI  28
LARAMIE        MOCLDY    37  20  50 SW17        N/A  WCI  27
CHEYENNE       FAIR      34  21  59 S10       29.93F WCI  26
TORRINGTON     FAIR      14   9  80 SE7       29.96F WCI   4
PINE BLUFFS    PTSUNNY   21  18  86 SW8       29.97F WCI  12

$$



USA.gov is the U.S. government's official web portal to all federal, state and local government web resources and services.